Location: Exeidioux
(45.6312°N, 1.6819°E)
Time: 16:13:34
(UTC+00:00)

USA 234 - Pass Details

Date: 03 March 2021
Orbit: 1102 x 1105 km, 123.0° (Epoch: 08 April)

Event Time Altitude Azimuth Distance (km) Brightness Sun altitude
Exits shadow 19:39:56 22° 56° (NE) 2,213 4.5 -21.1°
Maximum altitude 19:44:28 78° 140° (SE) 1,129 3.1 -21.9°
Drops below altitude 10° 19:51:01 10° 227° (SW) 2,955 5.9 -23.0°
Sets 19:53:30 0° 229° (SW) 3,911 6.6 -23.4°
